Tracking 29932 objects as of 3-Dec-2024
HD Live streaming from Space Station
objects crossing your sky now

STARLINK-11272

Track STARLINK-11272 now!
10-day predictions
STARLINK-11272 is classified as:


NORAD ID: 60723
Int'l Code: 2024-152D
Perigee: 366.4 km
Apogee: 367.4 km
Inclination: 53.2 °
Period: 91.7 minutes
Semi major axis: 6737 km
RCS: Unknown
Launch date: August 28, 2024
Source: United States (US)
Launch site: AIR FORCE EASTERN TEST RANGE (AFETR)
Your satellite tracking list
Your tracking list is empty




NASA's NSSDC Master Catalog

Two Line Element Set (TLE):
1 60723U 24152D   24337.95841840  .00002890  00000-0  28707-4 0  9997
2 60723  53.1591 232.5168 0000788  93.9056 266.2052 15.69703246 16335
Source of the keplerian elements: AFSPC